Regional Weather Roundup
Issued by NWS

Home | Current Version | Previous Version | Graphics & Text | Print | Product List | Glossary On
Versions: 1 2 3 4 5 6 7 8 9 10 11 12 13 14 15 16 17 18 19 20 21 22 23 24 25 26 27 28 29 30 31 32 33 34 35 36 37 38 39 40 41 42 43 44 45 46 47 48 49 50
000
ASUS43 KBIS 062320
RWRND

NORTH DAKOTA REGIONAL WEATHER ROUNDUP
NATIONAL WEATHER SERVICE BISMARCK ND
500 PM CST FRI MAR 06 2015

NOTE: "FAIR" INDICATES FEW OR NO CLOUDS BELOW 12,000 FEET WITH NO
SIGNIFICANT WEATHER AND/OR OBSTRUCTIONS TO VISIBILITY.


NDZ001>003-009>011-017-070000-
NORTHWEST NORTH DAKOTA

CITY           SKY/WX    TMP DP  RH WIND       PRES   REMARKS
WILLISTON      CLOUDY    46  32  58 W14       29.97R
MINOT          PTSUNNY   41  26  55 SW17G24   29.86F
MINOT AFB      PTSUNNY   40  32  73 W20G26    29.85F
$$

NDZ018>021-031>035-040>046-070000-
SOUTHWEST NORTH DAKOTA

CITY           SKY/WX    TMP DP  RH WIND       PRES   REMARKS
BISMARCK       CLOUDY    46  24  42 S5        29.96F
DICKINSON      PTSUNNY   53  24  32 NW16G24   29.97R
GARRISON         N/A     42  29  59 W13       29.92S
HETTINGER ARPT PTSUNNY   56  20  24 W28       30.00S
$$

NDZ004>008-012>016-024-026-027-054-070000-
NORTHEAST NORTH DAKOTA

CITY           SKY/WX    TMP DP  RH WIND       PRES   REMARKS
GRAND FORKS    CLOUDY    38  19  46 SW12      29.96F
GRND FRKS AFB  PTSUNNY   37  18  46 SW10      29.95F
DEVILS LAKE    CLOUDY    34  25  69 SW9G20    29.92F
$$

NDZ022-023-025-028>030-036>039-047>053-070000-
SOUTHEAST NORTH DAKOTA

CITY           SKY/WX    TMP DP  RH WIND       PRES   REMARKS
FARGO          MOSUNNY   39  19  44 SW8       30.01F
JAMESTOWN      CLOUDY    36  21  54 SW8       29.98F
$$




USA.gov is the U.S. government's official web portal to all federal, state and local government web resources and services.